Previsão horária em Plosa

Hoje, 1 Março, Segunda-feira

Tempo Temperatura Precipitação Vento Pressão Humidade
00:00 +2°C° 0 mm 3 m/s 747 mmHg 88%
01:00 +2°C° 0 mm 3 m/s 747 mmHg 89%
02:00 +2°C° 0 mm 3 m/s 747 mmHg 89%
03:00 +2°C° 0 mm 2 m/s 747 mmHg 88%
04:00 +2°C° 0 mm 2 m/s 747 mmHg 88%
05:00 +2°C° 0 mm 2 m/s 747 mmHg 89%
06:00 +3°C° 0 mm 1 m/s 747 mmHg 89%
07:00 +3°C° 0 mm 1 m/s 747 mmHg 89%
08:00 +3°C° 0 mm 1 m/s 748 mmHg 86%
09:00 +3°C° 0 mm 0 m/s 748 mmHg 84%
10:00 +3°C° 0 mm 0 m/s 748 mmHg 81%
11:00 +4°C° 0 mm 0 m/s 748 mmHg 78%
12:00 +6°C° 0 mm 1 m/s 748 mmHg 74%
13:00 +7°C° 0 mm 1 m/s 748 mmHg 70%
14:00 +7°C° 0 mm 1 m/s 748 mmHg 70%
15:00 +7°C° 0 mm 1 m/s 747 mmHg 69%
16:00 +8°C° 0 mm 1 m/s 747 mmHg 68%
17:00 +7°C° 0 mm 1 m/s 747 mmHg 73%
18:00 +6°C° 0 mm 1 m/s 747 mmHg 79%
19:00 +4°C° 0 mm 1 m/s 747 mmHg 84%
20:00 +4°C° 0 mm 1 m/s 747 mmHg 85%
21:00 +4°C° 0 mm 1 m/s 747 mmHg 85%
22:00 +4°C° 0 mm 1 m/s 747 mmHg 86%
23:00 +3°C° 0 mm 1 m/s 747 mmHg 86%

Amanhã, 2 Março, Terça-feira

Tempo Temperatura Precipitação Vento Pressão Humidade
00:00 +3°C° 0 mm 1 m/s 747 mmHg 85%
01:00 +3°C° 0 mm 1 m/s 748 mmHg 84%
02:00 +3°C° 0 mm 1 m/s 747 mmHg 84%
03:00 +3°C° 0 mm 1 m/s 747 mmHg 83%
04:00 +3°C° 0 mm 1 m/s 746 mmHg 83%
05:00 +3°C° 0 mm 1 m/s 747 mmHg 82%
06:00 +3°C° 0 mm 1 m/s 747 mmHg 81%
07:00 +3°C° 0 mm 1 m/s 747 mmHg 80%
08:00 +5°C° 0 mm 1 m/s 747 mmHg 73%
09:00 +7°C° 0 mm 1 m/s 747 mmHg 67%
10:00 +9°C° 0 mm 1 m/s 747 mmHg 60%
11:00 +10°C° 0 mm 1 m/s 747 mmHg 56%
12:00 +11°C° 0 mm 1 m/s 747 mmHg 53%
13:00 +12°C° 0 mm 1 m/s 747 mmHg 49%
14:00 +12°C° 0 mm 1 m/s 747 mmHg 51%
15:00 +12°C° 0 mm 1 m/s 746 mmHg 53%
16:00 +12°C° 0 mm 1 m/s 746 mmHg 55%
17:00 +11°C° 0 mm 1 m/s 746 mmHg 60%
18:00 +8°C° 0 mm 0 m/s 746 mmHg 65%
19:00 +6°C° 0 mm 0 m/s 746 mmHg 70%
20:00 +6°C° 0 mm 0 m/s 746 mmHg 71%
21:00 +6°C° 0 mm 0 m/s 746 mmHg 72%
22:00 +6°C° 0 mm 1 m/s 746 mmHg 74%
23:00 +5°C° 0 mm 0 m/s 746 mmHg 74%

Depois de amanhã, 3 Março, Quarta-feira

Tempo Temperatura Precipitação Vento Pressão Humidade
00:00 +4°C° 0 mm 0 m/s 746 mmHg 75%
01:00 +4°C° 0 mm 0 m/s 746 mmHg 76%
02:00 +4°C° 0 mm 0 m/s 745 mmHg 76%
03:00 +4°C° 0 mm 1 m/s 745 mmHg 76%
04:00 +4°C° 0 mm 1 m/s 745 mmHg 77%
05:00 +4°C° 0 mm 1 m/s 744 mmHg 76%
06:00 +4°C° 0 mm 1 m/s 744 mmHg 75%
07:00 +4°C° 0 mm 1 m/s 744 mmHg 75%
08:00 +6°C° 0 mm 1 m/s 744 mmHg 68%
09:00 +8°C° 0 mm 1 m/s 744 mmHg 62%
10:00 +9°C° 0 mm 1 m/s 744 mmHg 55%
11:00 +11°C° 0 mm 1 m/s 744 mmHg 51%
12:00 +12°C° 0 mm 1 m/s 743 mmHg 47%
13:00 +13°C° 0 mm 1 m/s 743 mmHg 43%
14:00 +13°C° 0 mm 1 m/s 742 mmHg 44%
15:00 +13°C° 0 mm 1 m/s 741 mmHg 46%
16:00 +13°C° 0 mm 1 m/s 741 mmHg 48%
17:00 +10°C° 0 mm 2 m/s 740 mmHg 53%
18:00 +8°C° 0 mm 2 m/s 740 mmHg 59%
19:00 +6°C° 0 mm 2 m/s 740 mmHg 64%
20:00 +5°C° 0 mm 3 m/s 739 mmHg 67%
21:00 +4°C° 0 mm 3 m/s 739 mmHg 71%
22:00 +4°C° 0 mm 3 m/s 739 mmHg 74%
23:00 +3°C° 0 mm 3 m/s 738 mmHg 75%

4 Março, Quinta-feira

Tempo Temperatura Precipitação Vento Pressão Humidade
00:00 +3°C° 0 mm 3 m/s 738 mmHg 77%
01:00 +3°C° 0 mm 3 m/s 738 mmHg 78%
02:00 +3°C° 0 mm 3 m/s 737 mmHg 79%
03:00 +3°C° 0 mm 3 m/s 737 mmHg 79%
04:00 +3°C° 0 mm 3 m/s 736 mmHg 80%
05:00 +3°C° 0 mm 3 m/s 736 mmHg 80%
06:00 +2°C° 0 mm 3 m/s 735 mmHg 81%
07:00 +2°C° 0 mm 3 m/s 735 mmHg 81%
08:00 +4°C° 0 mm 3 m/s 735 mmHg 76%
09:00 +7°C° 0 mm 3 m/s 734 mmHg 70%
10:00 +8°C° 0 mm 4 m/s 734 mmHg 65%
11:00 +10°C° 0 mm 4 m/s 734 mmHg 62%
12:00 +11°C° 0 mm 4 m/s 734 mmHg 60%
13:00 +11°C° 0 mm 4 m/s 733 mmHg 58%
14:00 +11°C° 0.1 mm 3 m/s 733 mmHg 61%
15:00 +11°C° 0.1 mm 3 m/s 732 mmHg 64%
16:00 +10°C° 0.1 mm 2 m/s 731 mmHg 67%
17:00 +9°C° 0 mm 2 m/s 731 mmHg 71%
18:00 +8°C° 0 mm 2 m/s 731 mmHg 75%
19:00 +9°C° 0 mm 1 m/s 730 mmHg 79%
20:00 +8°C° 0.8 mm 1 m/s 730 mmHg 83%
21:00 +6°C° 0.8 mm 2 m/s 730 mmHg 87%
22:00 +6°C° 0.8 mm 2 m/s 730 mmHg 91%
23:00 +6°C° 0.6 mm 2 m/s 729 mmHg 92%

5 Março, Sexta-feira

Tempo Temperatura Precipitação Vento Pressão Humidade
00:00 +6°C° 0.6 mm 1 m/s 729 mmHg 93%
01:00 +6°C° 0.6 mm 1 m/s 729 mmHg 94%
02:00 +6°C° 0.9 mm 1 m/s 728 mmHg 94%
03:00 +5°C° 0.9 mm 2 m/s 728 mmHg 95%
04:00 +4°C° 0.9 mm 3 m/s 728 mmHg 95%
05:00 +3°C° 1.3 mm 3 m/s 728 mmHg 95%
06:00 +3°C° 1.3 mm 4 m/s 729 mmHg 95%
07:00 +1°C° 1.3 mm 4 m/s 729 mmHg 95%
08:00 +1°C° 0.3 mm 4 m/s 730 mmHg 95%
09:00 0°C° 0.3 mm 4 m/s 730 mmHg 95%
10:00 0°C° 0.3 mm 4 m/s 731 mmHg 95%
11:00 -1°C° 0.2 mm 4 m/s 732 mmHg 92%
12:00 -1°C° 0.2 mm 5 m/s 732 mmHg 90%
13:00 -1°C° 0.2 mm 5 m/s 733 mmHg 87%
14:00 -1°C° 0.2 mm 5 m/s 734 mmHg 84%
15:00 -1°C° 0.2 mm 5 m/s 734 mmHg 81%
16:00 -1°C° 0.2 mm 5 m/s 734 mmHg 78%
17:00 -2°C° 0.1 mm 4 m/s 735 mmHg 76%
18:00 -2°C° 0.1 mm 3 m/s 736 mmHg 74%
19:00 -2°C° 0.1 mm 2 m/s 736 mmHg 72%
20:00 -3°C° 0 mm 2 m/s 737 mmHg 71%
21:00 -3°C° 0 mm 2 m/s 738 mmHg 71%
22:00 -3°C° 0 mm 2 m/s 739 mmHg 70%
23:00 -3°C° 0 mm 2 m/s 739 mmHg 74%

6 Março, Sábado

Tempo Temperatura Precipitação Vento Pressão Humidade
00:00 -4°C° 0 mm 3 m/s 739 mmHg 77%
01:00 -4°C° 0 mm 3 m/s 740 mmHg 81%
02:00 -5°C° 0 mm 3 m/s 740 mmHg 81%
03:00 -5°C° 0 mm 3 m/s 740 mmHg 80%
04:00 -5°C° 0 mm 3 m/s 740 mmHg 80%
05:00 -5°C° 0 mm 3 m/s 741 mmHg 80%
06:00 -5°C° 0 mm 3 m/s 742 mmHg 80%
07:00 -5°C° 0 mm 3 m/s 742 mmHg 80%
08:00 -4°C° 0 mm 3 m/s 743 mmHg 73%
09:00 -3°C° 0 mm 4 m/s 743 mmHg 67%
10:00 -3°C° 0 mm 4 m/s 744 mmHg 60%
11:00 -2°C° 0.1 mm 4 m/s 744 mmHg 55%
12:00 -1°C° 0.1 mm 4 m/s 745 mmHg 50%
13:00 -1°C° 0.1 mm 4 m/s 745 mmHg 45%
14:00 -1°C° 0 mm 4 m/s 745 mmHg 44%
15:00 -1°C° 0 mm 4 m/s 745 mmHg 43%
16:00 0°C° 0 mm 3 m/s 745 mmHg 42%
17:00 -1°C° 0 mm 2 m/s 745 mmHg 46%
18:00 0°C° 0 mm 1 m/s 746 mmHg 50%
19:00 -2°C° 0 mm 0 m/s 746 mmHg 55%
20:00 -1°C° 0 mm 1 m/s 746 mmHg 55%
21:00 -1°C° 0 mm 1 m/s 746 mmHg 55%
22:00 -2°C° 0 mm 1 m/s 746 mmHg 55%
23:00 -4°C° 0 mm 2 m/s 746 mmHg 56%
Mostrar mais

Necessitamos do seu Consentimento

A Meteoprog e os seus Fornecedores de Serviços podem armazenar e aceder a dados pessoais como cookies, identificadores do dispositivo ou outras tecnologias semelhantes existentes no seu dispositivo e processar estes dados para personalizar conteúdos e anúncios, assim como funcionalidades nas redes sociais e análise de tráfego.

  • Armazenar e/ou aceder a informações no seu dispositivo

    Os cookies, identificadores do dispositivo ou outras informações podem ser armazenados ou acedidos no seu dispositivo, para os fins acima indicados.

  • Anúncios e conteúdos personalizados, medição de anúncios e conteúdos, dados sobre o público-alvo e desenvolvimento de produtos

    Os anúncios e os conteúdos podem ser personalizados com base num perfil. Podem ser adicionados dados adicionais para uma maior personalização dos anúncios e dos conteúdos. A eficácia dos anúncios e dos conteúdos pode ser medida. Podem ser obtidas informações sobre o público que visualizou os anúncios e os conteúdos. Estes dados podem ser usados para desenvolver ou melhorar sistemas, softwares ou a experiência do utilizador.

Ao clicar em "Eu concordo”, permitirá o uso de cookies, identificadores do dispositivo e web beacons mencionados ou outras tecnologias semelhantes. As configurações do navegador do seu dispositivo podem ser alteradas.

Para certos fins, podem ser invocados interesses legítimos ao invés de consentimento. Pode ler mais informação sobre este assunto na nossa Política de Privacidade e Cookies.